Regional Weather Roundup
Issued by NWS Little Rock, AR

Home | Current Version | Previous Version | Graphics & Text | Print | Product List | Glossary On
Versions: 1 2 3 4 5 6 7 8 9 10 11 12 13 14 15 16 17 18 19 20 21 22 23 24 25 26 27 28 29 30 31 32 33 34 35 36 37 38 39
000
ASUS44 KLZK 250805
RWRLZK

WEATHER ROUNDUP FOR ARKANSAS
NATIONAL WEATHER SERVICE LITTLE ROCK AR
200 AM CST THU DEC 25 2014

NOTE: "FAIR" INDICATES FEW OR NO CLOUDS BELOW 12,000 FEET WITH NO
SIGNIFICANT WEATHER AND/OR OBSTRUCTIONS TO VISIBILITY.

ARZ001-003-010-029-250900-
NORTHWEST ARKANSAS

CITY           SKY/WX    TMP DP  RH WIND       PRES   REMARKS
FAYETTEVILLE   CLEAR     29  27  92 CALM      29.94R
FORT SMITH     CLEAR     28  26  92 CALM      29.99R
HARRISON       CLEAR     30  27  88 SE6       29.93S WCI  24
BENTONVILLE    CLEAR     30  27  86 S6        29.93R WCI  24
ROGERS         CLEAR     30  27  88 S7        29.93R WCI  23
SILOAM SPGS    CLEAR     30  23  74 S7        29.93S WCI  23
HIGHFILL       CLEAR     29  27  92 S7        29.92R WCI  22
$$

ARZ004-005-016-250900-
NORTH CENTRAL ARKANSAS

CITY           SKY/WX    TMP DP  RH WIND       PRES   REMARKS
BATESVILLE     CLEAR     36  30  80 SW6       30.00R
FLIPPIN        CLEAR     30  25  80 SW6       29.95S WCI  24
MTN HOME       CLEAR     32  27  81 S3        29.95R
$$

ARZ040-041-250900-
WEST CENTRAL ARKANSAS

CITY           SKY/WX    TMP DP  RH WIND       PRES   REMARKS
MENA           CLEAR     30  30 100 CALM      29.99S
MOUNT IDA      CLEAR     28  26  92 CALM      29.99R
$$

ARZ009-017-025-026-028-250900-
NORTHEAST ARKANSAS

CITY           SKY/WX    TMP DP  RH WIND       PRES   REMARKS
CORNING        CLOUDY    37  32  81 SW7       30.00R
JONESBORO      CLOUDY    41  34  76 SW5       30.01R
NEWPORT        CLEAR     37  34  89 SW7       30.03R
WALNUT RIDGE   CLEAR     37  28  70 SW7       29.99S
BLYTHEVILLE    CLOUDY    41  34  76 W6        30.01R
$$

ARZ022-023-033-042-044-250900-
CENTRAL ARKANSAS

CITY           SKY/WX    TMP DP  RH WIND       PRES   REMARKS
LITTLE ROCK    CLEAR     34  29  82 CALM      30.05R
N LITTLE ROCK    N/A     34  32  92 SW5       30.05R WCI  30
JACKSONVILLE   CLEAR     31  28  88 CALM      30.03R
SEARCY         CLEAR     35  32  88 CALM      30.05R
HOT SPRINGS    CLEAR     29  26  89 CALM      30.04R
RUSSELLVILLE   CLEAR     30  28  92 CALM      30.01R
CLINTON        FAIR      28  28 100 CALM      30.03R FOG
$$

ARZ036-250900-
EAST ARKANSAS

CITY           SKY/WX    TMP DP  RH WIND       PRES   REMARKS
WEST MEMPHIS   CLOUDY    41  36  82 VRB3      30.03R
$$

ARZ050-053-066-070-073-250900-
SOUTHWEST ARKANSAS

CITY           SKY/WX    TMP DP  RH WIND       PRES   REMARKS
ARKADELPHIA    FAIR      30  30 100 CALM      30.07R
CAMDEN         CLEAR     30  28  93 CALM      30.08R
TEXARKANA      CLEAR     35  32  88 S6        30.04R WCI  30
EL DORADO      CLEAR     31  28  89 CALM      30.08R
DE QUEEN       CLEAR     27  25  92 CALM      30.02R
$$

ARZ056-057-069-250900-
SOUTHEAST ARKANSAS

CITY           SKY/WX    TMP DP  RH WIND       PRES   REMARKS
PINE BLUFF     CLEAR     36  31  82 SW5       30.07R
STUTTGART      CLEAR     36  30  80 SW8       30.06R
MONTICELLO     CLEAR     35  32  88 CALM      30.08R

$$





USA.gov is the U.S. government's official web portal to all federal, state and local government web resources and services.